sat.trackr.live / text

‹ back to catalog

SYRACUSE 3A

NORAD 28885 · 2005-041B

PAYLOAD ACTIVE UNKNOWN

§ Identity

Operator
Country
FR
Launch date
2005-10-13
Launch site
FRGUI
Launch vehicle
Mass (kg)
RCS (m²)
23.58

Purposes: comms

External: N2YO · Heavens-Above · Gunter

§ Orbital elements

Epoch: 2026-09-11T12:27:56.057184Z

Period
1,436.04 min
Inclination
4.8548°
Eccentricity
0.0002457
Mean motion
1.00275934 rev/d
Perigee alt
35,775.1 km
Apogee alt
35,795.8 km
Semi-major
42,163.6 km
B*
0.0000e+0
RAAN
74.7263°
Arg perigee
106.5771°
Mean anomaly
42.9291°
Rev number
7,661

§ Raw data

SYRACUSE 3A1 28885U 05041B   26254.51939881  .00000114  00000+0  00000+0 0  99982 28885   4.8548  74.7263 0002457 106.5771  42.9291  1.00275934 76614

JSON: /api/v1/satellites/28885 · /tle

For live sub-satellite position, see the globe view (requires WebGL).

§ Visibility from observer

Set your observer location to see the next 7 days of passes ≥ 10°. The values pass through the URL so the page stays shareable.

No JS? Fill the form by hand. The geolocation button needs JavaScript.